Regional Weather Roundup
Issued by NWS

Home | Current Version | Previous Version | Text Only | Print | Product List | Glossary Off
Versions: 1 2 3 4 5 6 7 8 9 10 11 12 13 14 15 16 17 18 19 20 21 22 23 24 25 26 27 28 29 30 31 32 33 34 35 36 37 38 39 40 41 42 43 44 45 46 47 48 49 50

000
ASUS43 KOAX 290702
RWRNE

WEATHER ROUNDUP FOR NEBRASKA
NATIONAL WEATHER SERVICE OMAHA NE
200 AM CDT SAT AUG 29 2015

NOTES: SATELLITE DATA IS BEING USED TO AUGMENT CLOUD COVER ABOVE
       12000 FEET.
       "FAIR" INDICATES FEW OR NO CLOUDS BELOW 12,000 FEET WITH NO
       SIGNIFICANT WEATHER AND/OR OBSTRUCTIONS TO VISIBILITY.

  * THESE STATIONS DO NOT REPORT WEATHER SUCH AS RAIN...SNOW OR FOG.

NEZ001>004-019>022-054>056-290800-
NEBRASKA PANHANDLE

CITY           SKY/WX    TMP DP  RH WIND       PRES   REMARKS
SCOTTSBLUFF    CLEAR     61  50  67 CALM      30.17S
ALLIANCE       CLEAR     55  48  77 CALM      30.16R
CHADRON        CLEAR     56  49  77 CALM      30.11R
KIMBALL        CLEAR     56  44  64 W7        30.23S
SIDNEY         CLEAR     53  42  66 SW8       30.20F
$$

NEZ057>060-069>072-079>082-290800-
SOUTHWEST NEBRASKA

CITY           SKY/WX    TMP DP  RH WIND       PRES   REMARKS
NORTH PLATTE   CLEAR     55  53  93 CALM      30.13R
IMPERIAL       CLEAR     61  57  87 W3        30.16R
LEXINGTON      CLEAR     58  57  96 NW6       30.10R
MCCOOK         CLEAR     62  59  90 CALM      30.12R
OGALLALA       CLEAR     56  53  91 CALM      30.15S
$$

NEZ005>010-023>029-035>040-094-290800-
NORTH CENTRAL NEBRASKA

CITY           SKY/WX    TMP DP  RH WIND       PRES   REMARKS
VALENTINE      CLEAR     59  58  96 CALM      30.07F
AINSWORTH      CLEAR     58  57  97 CALM      30.08F
BROKEN BOW     CLEAR     59  57  93 CALM      30.08F
O`NEILL        FOG       59  58  99 CALM      30.06F VSB<1/4
ORD            CLEAR     57  56  96 CALM      30.05F
THEDFORD       CLEAR     56  56  98 S7        30.11F
$$

NEZ041-046>049-061>064-073>077-083>087-290800-
SOUTH CENTRAL NEBRASKA

CITY           SKY/WX    TMP DP  RH WIND       PRES   REMARKS
GRAND ISLAND   CLEAR     61  60  97 N8        30.05S
AURORA         MOCLDY    61  61 100 N7        30.03S
HASTINGS       CLEAR     61  59  93 N5        30.04S
HEBRON         MOCLDY    64  60  87 N6        30.02R
HOLDREGE       CLEAR     59  56  92 NW3       30.07F
KEARNEY *      CLEAR     59  54  82 NW7       30.06F
YORK           MOCLDY    59  57  94 CALM      30.03S
$$

NEZ011>018-030>034-042>045-290800-
NORTHEAST NEBRASKA

CITY           SKY/WX    TMP DP  RH WIND       PRES   REMARKS
NORFOLK        CLOUDY    60  58  92 N9        30.03S
ALBION         CLEAR     57  55  93 CALM      30.04F
BLAIR          CLOUDY    61  59  94 N13       29.98S FOG
COLUMBUS *     CLOUDY   N/A N/A N/A N3        30.02S
FREMONT        CLOUDY    63  60  89 N5        30.00S
TEKAMAH        CLOUDY    62  60  93 N8        29.99S
WAYNE          CLOUDY    61  58  91 N8        30.03S
$$

NEZ050>053-065>068-078-088>093-290800-
SOUTHEAST NEBRASKA

CITY           SKY/WX    TMP DP  RH WIND       PRES   REMARKS
LINCOLN        CLOUDY    64  60  87 N14       30.00R
OMAHA EPPLEY   CLOUDY    63  62  97 N10       29.97S
BEATRICE       CLOUDY    64  60  90 N6        29.99S
FALLS CITY     CLOUDY    67  65  93 NW10      29.93F
NEBRASKA CITY  CLOUDY    63  63  99 N7        29.96F FOG
PLATTSMOUTH    CLOUDY    63  61  95 NW7       29.97S FOG
$$

NEZ044-045-051>053-067-290800-
OMAHA AREA

CITY           SKY/WX    TMP DP  RH WIND       PRES   REMARKS
OMAHA EPPLEY   CLOUDY    63  62  97 N10       29.97S
BLAIR          CLOUDY    61  59  94 N13       29.98S FOG
FREMONT        CLOUDY    63  60  89 N5        30.00S
MILLARD        CLOUDY    64  62  94 N3        29.98S
OFFUTT AFB     CLOUDY    63  62  94 N8        29.96S FOG
PLATTSMOUTH    CLOUDY    63  61  95 NW7       29.97S FOG
WAHOO          CLOUDY    63  60  92 N7        30.00R
$$



USA.gov is the U.S. government's official web portal to all federal, state and local government web resources and services.